Orbital Elements at Epoch 2459000.5 (2020-May-31.0) TDB
Reference: JPL 18 (heliocentric ecliptic J2000)
Element | Value | Uncertainty (1-sigma) | Units |
e | .1646563780000464 | 4.1614e-08 | |
a | 2.429885154147293 | 9.4225e-09 | au |
q | 2.029789065709315 | 1.0144e-07 | au |
i | 6.803480420454309 | 5.359e-06 | deg |
node | 158.2863194958389 | 3.3556e-05 | deg |
peri | 206.5651034489382 | 3.6988e-05 | deg |
M | 138.4453963183861 | 1.6051e-05 | deg |
tp | 2458468.449241809084 (2018-Dec-15.94924181) | 6.0673e-05 | TDB |
period | 1383.493261908433 3.79 | 8.0473e-06 2.203e-08 | d yr |
n | .260210880610582 | 1.5136e-09 | deg/d |
Q | 2.829981242585271 | 1.0974e-08 | au |
|
| | Orbit Determination Parameters
Additional Information
|